User: anonymous   Login
Location: Karlovy Vary
(50.2170°N, 12.9000°E)
Time: 17:01:44
(UTC+02:00)
Language:

ISS - Orbit

View from above orbital plane
View from above orbital plane
View from above satellite
View from above satellite

Ground track
Ground track

The orbit data is extracted from the following two-line orbital elements,

1 25544U 98067A   16121.52487927  .00004786  00000-0  78775-4 0  9998
2 25544  51.6441 295.7874 0001942  82.6477  18.8608 15.54381658997568
Epoch (UTC): 30 April 2016 12:35:49
Eccentricity: 0.0001942
inclination: 51.6441°
perigee height: 402 km
apogee height: 405 km
right ascension of ascending node: 295.7874°
argument of perigee: 82.6477°
revolutions per day: 15.54381658
mean anomaly at epoch: 18.8608°
orbit number at epoch: 99756

The dashed part of the orbit path shows where the satellite is in the earth's shadow,  

DLR